STARLINK-1657, 46354

Orbit data source: Space-Track

STARLINK-1657, 46354 is a payload satellite owned by SpaceX/Seattle (US) in LEO that was launched on Thu, 03 Sep 2020 UTC via an FALCON 9 launch vehicle from the Air Force Eastern Test Range (AFETR). Payload-class satellites include a variety of spacecraft equipped with specific instruments for various scientific and technological missions. These include communications satellites like Starlink; space stations such as the ISS; scientific satellites like the Hubble; Earth observation satellites from companies like Planet Labs, Umbra, and HawkEye 360; GPS; miniature CubeSats for education and research; and military/defense satellites.

Loading next visibility...
Identifier
46354, 2020-062AF
Orbit
LEO
Country
Flag of USUS
Related business
Manufacturer
SpaceX/Seattle
Mission
Partially operational Commercial Communications
Bus & Motor
STARLINK, Unknown motor
Mass
260 kg wet, ~248 kg dry
Launch date (UTC)
2020-09-03 (5 years ago)
Launch vehicle
FALCON 9
Launch site
Air Force Eastern Test Range (AFETR)
Object type
Payload
Rocket body
Debris
Shape & HBR
Box + 1 Pan, 10.1 m
Radar Cross Section
13.562 m², Large (>1 m²)

Expand to show TLE details & history
Last TLE update: 1 day ago

TLE from 1 day ago
0 STARLINK-1657
1 46354U 20062AF  25309.45713022  .00079915  00000-0  20748-2 0  9999
2 46354  53.0560 210.7392 0001730 108.9962 251.1229 15.38293966285631
Epoch: 2025-11-05T10:58Z
TLE epoch observation values (Epoch: 2025-11-05T10:58:16.051Z)
Latitude
-0.00001°
Longitude
1.24279°
Altitude
452.428 km
Speed
7.642 km/s
True Right ascension
14h 02m 57s
True Declination
0° 00' 00"
Sunlit
Object was in daylight at epoch
Visualization orbit readout
Latitude
Unknown
Longitude
Unknown
Altitude
Unknown
Speed
Unknown
Apparent Right ascension
Unknown
Apparent Declination
Unknown
Sunlit
N/A
Visualization observer readout
Local Sidereal Time
06:58:57
Azimuth
Unknown
Elevation
Unknown
Doppler factor
Unknown
Orbital elements
Apogee altitude
452.61 km
Perigee altitude
450.247 km
Semi-major axis
6,829.565 km
Eccentricity
0.00017
Inclination
53.056°
RAAN
210.7392°
Arg. of periapsis
108.9962°
True anomaly
251.10414°
Mean anomaly
251.1229°
Eccentric anomaly
251.11352°
Mean motion
3.84551 °/min
Orbital period
93.62 mins
BSTAR
0.0020748
Loading maneuver chart data...
Computing Atmospheric mass density...
Loading historical data...
Loading historical data...
Loading historical data...
Loading historical data...
Loading historical data...
Loading historical data...
Loading historical data...

Documentation

Showing up to 5 results
|